Time,TemperatureF,DewpointF,PressureIn,WindDirection,WindDirectionDegrees,WindSpeedMPH,WindSpeedGustMPH,Humidity,HourlyPrecipIn,Conditions,Clouds,dailyrainin,SoftwareType,DateUTC
2013-08-03 00:02:00,80.0,53.0,30.15,SE,134,1.0,3.0,40,0.00,,,0.00,,2013-08-03 05:02:00,
2013-08-03 00:12:00,80.0,53.0,30.15,SE,134,1.0,3.0,40,0.00,,,0.00,,2013-08-03 05:12:00,
2013-08-03 00:22:00,79.0,55.0,30.15,South,175,0.0,2.0,43,0.00,,,0.00,,2013-08-03 05:22:00,
2013-08-03 00:32:00,79.0,55.0,30.15,South,175,0.0,2.0,43,0.00,,,0.00,,2013-08-03 05:32:00,
2013-08-03 00:42:00,79.0,55.0,30.15,South,175,0.0,2.0,43,0.00,,,0.00,,2013-08-03 05:42:00,
2013-08-03 00:52:00,78.0,55.0,30.14,ESE,122,0.0,4.0,45,0.00,,,0.00,,2013-08-03 05:52:00,
2013-08-03 01:02:00,78.0,55.0,30.14,ESE,122,0.0,4.0,45,0.00,,,0.00,,2013-08-03 06:02:00,
2013-08-03 01:12:00,78.0,55.0,30.14,ESE,122,0.0,4.0,45,0.00,,,0.00,,2013-08-03 06:12:00,
2013-08-03 01:22:00,75.0,54.0,30.15,WNW,294,3.0,4.0,48,0.00,,,0.00,,2013-08-03 06:22:00,
2013-08-03 01:32:00,75.0,54.0,30.15,WNW,294,3.0,4.0,48,0.00,,,0.00,,2013-08-03 06:32:00,
2013-08-03 01:42:00,75.0,54.0,30.15,WNW,294,3.0,4.0,48,0.00,,,0.00,,2013-08-03 06:42:00,
2013-08-03 01:52:00,74.0,54.0,30.15,WNW,298,0.0,3.0,50,0.00,,,0.00,,2013-08-03 06:52:00,
2013-08-03 02:02:00,74.0,54.0,30.15,WNW,298,0.0,3.0,50,0.00,,,0.00,,2013-08-03 07:02:00,
2013-08-03 02:12:00,74.0,54.0,30.15,WNW,298,0.0,3.0,50,0.00,,,0.00,,2013-08-03 07:12:00,
2013-08-03 02:22:00,75.0,55.0,30.15,ESE,103,0.0,1.0,49,0.00,,,0.00,,2013-08-03 07:22:00,
2013-08-03 02:32:00,75.0,55.0,30.15,ESE,103,0.0,1.0,49,0.00,,,0.00,,2013-08-03 07:32:00,
2013-08-03 02:43:00,75.0,55.0,30.15,ESE,103,0.0,1.0,49,0.00,,,0.00,,2013-08-03 07:43:00,
2013-08-03 02:53:00,73.0,54.0,30.15,East,79,0.0,1.0,51,0.00,,,0.00,,2013-08-03 07:53:00,
2013-08-03 03:02:00,73.0,54.0,30.15,East,79,0.0,1.0,51,0.00,,,0.00,,2013-08-03 08:02:00,
2013-08-03 03:22:00,71.0,53.0,30.14,NW,321,2.0,3.0,53,0.00,,,0.00,,2013-08-03 08:22:00,
2013-08-03 03:32:00,71.0,53.0,30.14,NW,321,2.0,3.0,53,0.00,,,0.00,,2013-08-03 08:32:00,
2013-08-03 03:43:00,71.0,53.0,30.14,NW,321,2.0,3.0,53,0.00,,,0.00,,2013-08-03 08:43:00,
2013-08-03 03:52:00,71.0,54.0,30.14,NW,311,0.0,1.0,54,0.00,,,0.00,,2013-08-03 08:52:00,
2013-08-03 04:02:00,71.0,54.0,30.14,NW,311,0.0,1.0,54,0.00,,,0.00,,2013-08-03 09:02:00,
2013-08-03 04:12:00,71.0,54.0,30.14,NW,311,0.0,1.0,54,0.00,,,0.00,,2013-08-03 09:12:00,
2013-08-03 04:22:00,72.0,54.0,30.14,West,269,0.0,4.0,53,0.00,,,0.00,,2013-08-03 09:22:00,
2013-08-03 04:32:00,72.0,54.0,30.14,West,269,0.0,4.0,53,0.00,,,0.00,,2013-08-03 09:32:00,
2013-08-03 04:43:00,72.0,54.0,30.14,West,269,0.0,4.0,53,0.00,,,0.00,,2013-08-03 09:43:00,
2013-08-03 04:53:00,72.0,53.0,30.14,WNW,297,0.0,2.0,52,0.00,,,0.00,,2013-08-03 09:53:00,
2013-08-03 05:02:00,72.0,53.0,30.14,WNW,297,0.0,2.0,52,0.00,,,0.00,,2013-08-03 10:02:00,
2013-08-03 05:12:00,72.0,53.0,30.14,WNW,297,0.0,2.0,52,0.00,,,0.00,,2013-08-03 10:12:00,
2013-08-03 05:22:00,72.0,53.0,30.14,WNW,297,0.0,3.0,52,0.00,,,0.00,,2013-08-03 10:22:00,
2013-08-03 05:32:00,72.0,53.0,30.14,WNW,297,0.0,3.0,52,0.00,,,0.00,,2013-08-03 10:32:00,
2013-08-03 05:43:00,72.0,53.0,30.14,WNW,297,0.0,3.0,52,0.00,,,0.00,,2013-08-03 10:43:00,
2013-08-03 05:53:00,71.0,53.0,30.14,WNW,296,0.0,2.0,53,0.00,,,0.00,,2013-08-03 10:53:00,
2013-08-03 06:02:00,71.0,53.0,30.14,WNW,296,0.0,2.0,53,0.00,,,0.00,,2013-08-03 11:02:00,
2013-08-03 06:12:00,71.0,53.0,30.14,WNW,296,0.0,2.0,53,0.00,,,0.00,,2013-08-03 11:12:00,
2013-08-03 06:22:00,71.0,53.0,30.14,West,276,1.0,4.0,53,0.00,,,0.00,,2013-08-03 11:22:00,
2013-08-03 06:32:00,71.0,53.0,30.14,West,276,1.0,4.0,53,0.00,,,0.00,,2013-08-03 11:32:00,
2013-08-03 06:43:00,71.0,53.0,30.14,West,276,1.0,4.0,53,0.00,,,0.00,,2013-08-03 11:43:00,
2013-08-03 06:53:00,71.0,54.0,30.15,WSW,256,0.0,4.0,54,0.00,,,0.00,,2013-08-03 11:53:00,
2013-08-03 07:02:00,71.0,54.0,30.15,WSW,256,0.0,4.0,54,0.00,,,0.00,,2013-08-03 12:02:00,
2013-08-03 07:12:00,71.0,54.0,30.15,WSW,256,0.0,4.0,54,0.00,,,0.00,,2013-08-03 12:12:00,
2013-08-03 07:22:00,72.0,53.0,30.16,West,264,3.0,9.0,52,0.00,,,0.00,,2013-08-03 12:22:00,
2013-08-03 07:32:00,72.0,53.0,30.16,West,264,3.0,9.0,52,0.00,,,0.00,,2013-08-03 12:32:00,
2013-08-03 07:43:00,72.0,53.0,30.16,West,264,3.0,9.0,52,0.00,,,0.00,,2013-08-03 12:43:00,
2013-08-03 07:53:00,72.0,54.0,30.16,West,273,2.0,5.0,53,0.00,,,0.00,,2013-08-03 12:53:00,
2013-08-03 08:02:00,72.0,54.0,30.16,West,273,2.0,5.0,53,0.00,,,0.00,,2013-08-03 13:02:00,
2013-08-03 08:12:00,72.0,54.0,30.16,West,273,2.0,5.0,53,0.00,,,0.00,,2013-08-03 13:12:00,
2013-08-03 08:22:00,73.0,54.0,30.17,WNW,292,0.0,6.0,52,0.00,,,0.00,,2013-08-03 13:22:00,
2013-08-03 08:33:00,73.0,54.0,30.17,WNW,292,0.0,6.0,52,0.00,,,0.00,,2013-08-03 13:33:00,
2013-08-03 08:43:00,73.0,54.0,30.17,WNW,292,0.0,6.0,52,0.00,,,0.00,,2013-08-03 13:43:00,
2013-08-03 09:02:00,74.0,54.0,30.21,WSW,238,5.0,15.0,50,0.00,,,0.00,,2013-08-03 14:02:00,
2013-08-03 09:12:00,74.0,54.0,30.21,WSW,238,5.0,15.0,50,0.00,,,0.00,,2013-08-03 14:12:00,
2013-08-03 09:22:00,77.0,55.0,30.20,SW,227,3.0,9.0,47,0.00,,,0.00,,2013-08-03 14:22:00,
2013-08-03 09:33:00,77.0,55.0,30.20,SW,227,3.0,9.0,47,0.00,,,0.00,,2013-08-03 14:33:00,
2013-08-03 09:43:00,77.0,55.0,30.20,SW,227,3.0,9.0,47,0.00,,,0.00,,2013-08-03 14:43:00,
2013-08-03 09:52:00,79.0,56.0,30.20,South,190,2.0,9.0,46,0.00,,,0.00,,2013-08-03 14:52:00,
2013-08-03 10:02:00,79.0,56.0,30.20,South,190,2.0,9.0,46,0.00,,,0.00,,2013-08-03 15:02:00,
2013-08-03 10:12:00,79.0,56.0,30.20,South,190,2.0,9.0,46,0.00,,,0.00,,2013-08-03 15:12:00,
2013-08-03 10:23:00,80.0,54.0,30.21,SSW,202,4.0,13.0,41,0.00,,,0.00,,2013-08-03 15:23:00,
2013-08-03 10:32:00,80.0,54.0,30.21,SSW,202,4.0,13.0,41,0.00,,,0.00,,2013-08-03 15:32:00,
2013-08-03 10:43:00,80.0,54.0,30.21,SSW,202,4.0,13.0,41,0.00,,,0.00,,2013-08-03 15:43:00,
2013-08-03 10:53:00,82.0,55.0,30.20,SSE,149,5.0,10.0,40,0.00,,,0.00,,2013-08-03 15:53:00,
2013-08-03 11:02:00,82.0,55.0,30.20,SSE,149,5.0,10.0,40,0.00,,,0.00,,2013-08-03 16:02:00,
2013-08-03 11:12:00,82.0,55.0,30.20,SSE,149,5.0,10.0,40,0.00,,,0.00,,2013-08-03 16:12:00,
2013-08-03 11:22:00,85.0,57.0,30.21,SW,223,3.0,11.0,38,0.00,,,0.00,,2013-08-03 16:22:00,
2013-08-03 11:33:00,85.0,57.0,30.21,SW,223,3.0,11.0,38,0.00,,,0.00,,2013-08-03 16:33:00,
2013-08-03 11:43:00,85.0,57.0,30.21,SW,223,3.0,11.0,38,0.00,,,0.00,,2013-08-03 16:43:00,
2013-08-03 11:53:00,87.0,56.0,30.20,SW,225,3.0,8.0,35,0.00,,,0.00,,2013-08-03 16:53:00,
2013-08-03 12:03:00,87.0,56.0,30.20,SW,225,3.0,8.0,35,0.00,,,0.00,,2013-08-03 17:03:00,
2013-08-03 12:12:00,87.0,56.0,30.20,SW,225,3.0,8.0,35,0.00,,,0.00,,2013-08-03 17:12:00,
2013-08-03 12:22:00,87.0,54.0,30.20,WSW,253,4.0,9.0,33,0.00,,,0.00,,2013-08-03 17:22:00,
2013-08-03 12:32:00,87.0,54.0,30.20,WSW,253,4.0,9.0,33,0.00,,,0.00,,2013-08-03 17:32:00,
2013-08-03 12:43:00,87.0,54.0,30.20,WSW,253,4.0,9.0,33,0.00,,,0.00,,2013-08-03 17:43:00,
2013-08-03 12:52:00,89.0,54.0,30.19,SW,223,2.0,15.0,30,0.00,,,0.00,,2013-08-03 17:52:00,
2013-08-03 13:02:00,89.0,54.0,30.19,SW,223,2.0,15.0,30,0.00,,,0.00,,2013-08-03 18:02:00,
2013-08-03 13:12:00,89.0,54.0,30.19,SW,223,2.0,15.0,30,0.00,,,0.00,,2013-08-03 18:12:00,
2013-08-03 13:22:00,90.0,53.0,30.19,SSW,201,4.0,13.0,29,0.00,,,0.00,,2013-08-03 18:22:00,
2013-08-03 13:32:00,90.0,53.0,30.19,SSW,201,4.0,13.0,29,0.00,,,0.00,,2013-08-03 18:32:00,
2013-08-03 13:43:00,90.0,53.0,30.19,SSW,201,4.0,13.0,29,0.00,,,0.00,,2013-08-03 18:43:00,
2013-08-03 13:53:00,93.0,53.0,30.17,NE,50,2.0,10.0,26,0.00,,,0.00,,2013-08-03 18:53:00,
2013-08-03 14:02:00,93.0,53.0,30.17,NE,50,2.0,10.0,26,0.00,,,0.00,,2013-08-03 19:02:00,
2013-08-03 14:12:00,93.0,53.0,30.17,NE,50,2.0,10.0,26,0.00,,,0.00,,2013-08-03 19:12:00,
2013-08-03 14:22:00,92.0,51.0,30.17,SW,231,2.0,8.0,25,0.00,,,0.00,,2013-08-03 19:22:00,
2013-08-03 14:32:00,92.0,51.0,30.17,SW,231,2.0,8.0,25,0.00,,,0.00,,2013-08-03 19:32:00,
2013-08-03 14:43:00,92.0,51.0,30.17,SW,231,2.0,8.0,25,0.00,,,0.00,,2013-08-03 19:43:00,
2013-08-03 14:53:00,94.0,52.0,30.17,NNE,30,1.0,9.0,24,0.00,,,0.00,,2013-08-03 19:53:00,
2013-08-03 15:02:00,94.0,52.0,30.17,NNE,30,1.0,9.0,24,0.00,,,0.00,,2013-08-03 20:02:00,
2013-08-03 15:12:00,94.0,52.0,30.17,NNE,30,1.0,9.0,24,0.00,,,0.00,,2013-08-03 20:12:00,
2013-08-03 15:22:00,91.0,50.0,30.16,NNE,15,2.0,8.0,25,0.00,,,0.00,,2013-08-03 20:22:00,
2013-08-03 15:32:00,91.0,50.0,30.16,NNE,15,2.0,8.0,25,0.00,,,0.00,,2013-08-03 20:32:00,
2013-08-03 15:42:00,91.0,50.0,30.16,NNE,15,2.0,8.0,25,0.00,,,0.00,,2013-08-03 20:42:00,
2013-08-03 15:52:00,92.0,51.0,30.15,ESE,110,2.0,12.0,25,0.00,,,0.00,,2013-08-03 20:52:00,
2013-08-03 16:02:00,92.0,51.0,30.15,ESE,110,2.0,12.0,25,0.00,,,0.00,,2013-08-03 21:02:00,
2013-08-03 16:12:00,92.0,51.0,30.15,ESE,110,2.0,12.0,25,0.00,,,0.00,,2013-08-03 21:12:00,
2013-08-03 16:22:00,93.0,52.0,30.14,SE,139,1.0,8.0,25,0.00,,,0.00,,2013-08-03 21:22:00,
2013-08-03 16:32:00,93.0,52.0,30.14,SE,139,1.0,8.0,25,0.00,,,0.00,,2013-08-03 21:32:00,
2013-08-03 16:42:00,93.0,52.0,30.14,SE,139,1.0,8.0,25,0.00,,,0.00,,2013-08-03 21:42:00,
2013-08-03 16:52:00,97.0,52.0,30.13,SE,144,7.0,14.0,22,0.00,,,0.00,,2013-08-03 21:52:00,
2013-08-03 17:02:00,97.0,52.0,30.13,SE,144,7.0,14.0,22,0.00,,,0.00,,2013-08-03 22:02:00,
2013-08-03 17:12:00,97.0,52.0,30.13,SE,144,7.0,14.0,22,0.00,,,0.00,,2013-08-03 22:12:00,
2013-08-03 17:22:00,93.0,52.0,30.12,SE,134,1.0,9.0,25,0.00,,,0.00,,2013-08-03 22:22:00,
2013-08-03 17:33:00,93.0,52.0,30.12,SE,134,1.0,9.0,25,0.00,,,0.00,,2013-08-03 22:33:00,
2013-08-03 17:43:00,93.0,52.0,30.12,SE,134,1.0,9.0,25,0.00,,,0.00,,2013-08-03 22:43:00,
2013-08-03 17:52:00,96.0,52.0,30.11,ESE,110,3.0,8.0,23,0.00,,,0.00,,2013-08-03 22:52:00,
2013-08-03 18:02:00,96.0,52.0,30.11,ESE,110,3.0,8.0,23,0.00,,,0.00,,2013-08-03 23:02:00,
2013-08-03 18:12:00,96.0,52.0,30.11,ESE,110,3.0,8.0,23,0.00,,,0.00,,2013-08-03 23:12:00,
2013-08-03 18:22:00,93.0,52.0,30.11,East,84,5.0,10.0,25,0.00,,,0.00,,2013-08-03 23:22:00,
2013-08-03 18:32:00,93.0,52.0,30.11,East,84,5.0,10.0,25,0.00,,,0.00,,2013-08-03 23:32:00,
2013-08-03 18:43:00,93.0,52.0,30.11,East,84,5.0,10.0,25,0.00,,,0.00,,2013-08-03 23:43:00,
2013-08-03 18:52:00,93.0,52.0,30.11,East,94,3.0,10.0,25,0.00,,,0.00,,2013-08-03 23:52:00,
2013-08-03 19:00:00,91.0,50.0,30.11,East,99,2.0,4.0,25,0.00,,,0.00,,2013-08-04 00:00:00,
2013-08-03 19:02:00,93.0,52.0,30.11,East,94,3.0,10.0,25,0.00,,,0.00,,2013-08-04 00:02:00,
2013-08-03 19:12:00,93.0,52.0,30.11,East,94,3.0,10.0,25,0.00,,,0.00,,2013-08-04 00:12:00,
2013-08-03 19:22:00,91.0,50.0,30.11,East,99,2.0,4.0,25,0.00,,,0.00,,2013-08-04 00:22:00,
2013-08-03 19:32:00,91.0,50.0,30.11,East,99,2.0,4.0,25,0.00,,,0.00,,2013-08-04 00:32:00,
2013-08-03 19:42:00,91.0,50.0,30.11,East,99,2.0,4.0,25,0.00,,,0.00,,2013-08-04 00:42:00,
2013-08-03 19:53:00,91.0,50.0,30.11,East,99,2.0,4.0,25,0.00,,,0.00,,2013-08-04 00:53:00,
2013-08-03 20:31:00,88.0,53.0,30.11,SSE,150,10.0,16.0,30,0.00,,,0.00,,2013-08-04 01:31:00,
2013-08-03 20:32:00,90.0,50.0,30.11,SE,140,1.0,6.0,26,0.00,,,0.00,,2013-08-04 01:32:00,
2013-08-03 20:42:00,90.0,50.0,30.11,SE,140,1.0,6.0,26,0.00,,,0.00,,2013-08-04 01:42:00,
2013-08-03 20:53:00,88.0,53.0,30.11,SSE,150,10.0,16.0,30,0.00,,,0.00,,2013-08-04 01:53:00,
2013-08-03 21:02:00,88.0,53.0,30.11,SSE,150,10.0,16.0,30,0.00,,,0.00,,2013-08-04 02:02:00,
2013-08-03 21:12:00,88.0,53.0,30.11,SSE,150,10.0,16.0,30,0.00,,,0.00,,2013-08-04 02:12:00,
2013-08-03 21:22:00,88.0,53.0,30.11,SSE,150,10.0,16.0,30,0.00,,,0.00,,2013-08-04 02:22:00,
2013-08-03 21:52:00,83.0,55.0,30.12,ESE,122,5.0,16.0,39,0.00,,,0.00,,2013-08-04 02:52:00,
2013-08-03 22:02:00,83.0,55.0,30.12,ESE,122,5.0,16.0,39,0.00,,,0.00,,2013-08-04 03:02:00,
2013-08-03 22:11:00,83.0,55.0,30.12,ESE,122,5.0,16.0,39,0.00,,,0.00,,2013-08-04 03:11:00,
2013-08-03 22:22:00,83.0,55.0,30.12,ESE,122,5.0,16.0,39,0.00,,,0.00,,2013-08-04 03:22:00,
2013-08-03 22:32:00,81.0,54.0,30.14,SE,144,8.0,15.0,40,0.00,,,0.00,,2013-08-04 03:32:00,
2013-08-03 22:42:00,81.0,54.0,30.14,SE,144,8.0,15.0,40,0.00,,,0.00,,2013-08-04 03:42:00,
2013-08-03 22:52:00,81.0,54.0,30.14,SE,144,8.0,15.0,40,0.00,,,0.00,,2013-08-04 03:52:00,
2013-08-03 23:02:00,81.0,54.0,30.14,SE,144,8.0,15.0,40,0.00,,,0.00,,2013-08-04 04:02:00,
2013-08-03 23:12:00,81.0,54.0,30.14,SE,144,8.0,15.0,40,0.00,,,0.00,,2013-08-04 04:12:00,
2013-08-03 23:21:00,79.0,53.0,30.17,ESE,105,1.0,4.0,40,0.00,,,0.00,,2013-08-04 04:21:00,
2013-08-03 23:42:00,79.0,53.0,30.17,ESE,105,1.0,4.0,40,0.00,,,0.00,,2013-08-04 04:42:00,
2013-08-03 23:52:00,79.0,53.0,30.17,ESE,105,1.0,4.0,40,0.00,,,0.00,,2013-08-04 04:52:00,